Weather History for Jordan, MT

Change the Weather History Date:

Wednesday, October 16, 2013

  Actual Average Record
Temperature  
Mean Temperature 39 °F 44 °F  
Max Temperature 54 °F 59 °F 89 °F (1910)
Min Temperature 23 °F 30 °F 8 °F (1976)
Degree Days  
Heating Degree Days 26 21  
Month to date heating degree days 328 285  
Since 1 July heating degree days 489 611  
Cooling Degree Days 0 0  
Month to date cooling degree days 0 0  
Year to date cooling degree days 520 420  
Moisture  
Dew Point 30 °F    
Average Humidity 69    
Maximum Humidity 100    
Minimum Humidity 38    
Precipitation  
Precipitation 0.06 in 0.04 in 0.67 in (1980)
Month to date precipitation 0.26 0.48  
Year to date precipitation 15.72 11.61  
Snow  
Snow 0.00 in - - ()
Month to date snowfall 0.0  
Since 1 July snowfall 0.0  
Since 1 September snowfall 0.0  
Snow Depth 0.00 in    
Sea Level Pressure  
Sea Level Pressure 30.09 in    
Wind  
Wind Speed 9 mph (NW)    
Max Wind Speed 25 mph    
Max Gust Speed 31 mph    
T = Trace of Precipitation, MM = Missing Value Source: NWS Daily Summary

Daily Weather History Graph

Daily Weather History Graph

Search for Another Location

Airport:

Trip Planner

Search our weather history database for the weather conditions in past years. The results will help you decide how hot, cold, wet, or windy it might be!

Date:

Astronomy

Oct. 16, 2013 Rise Set
Actual Time 7:28 AM MDT 6:17 PM MDT
Civil Twilight 6:57 AM MDT 6:48 PM MDT
Nautical Twilight 6:21 AM MDT 7:24 PM MDT
Astronomical Twilight 5:46 AM MDT 7:59 PM MDT
Moon 5:05 PM MDT (10/16) 4:50 AM MDT (10/16)
Length of Visible Light 11h 51m
Length of Day
10h 49m
Waxing Gibbous, 94% of the Moon is Illuminated
Oct 16
Waxing Gibbous
Oct 18
Full
Oct 26
Last Quarter
Nov 3
New
Nov 9
First Quarter

Hourly Weather History & Observations

Time (MDT) Temp. Windchill Dew Point Humidity Pressure Visibility Wind Dir Wind Speed Gust Speed Precip Events Conditions
12:48 AM 28.9 °F 25.2 °F 25.0 °F 85% 30.09 in - WNW 3.5 mph - N/A   Unknown
1:48 AM 24.1 °F 18.2 °F 21.9 °F 91% 30.09 in - WSW 4.6 mph - N/A   Unknown
2:48 AM 25.0 °F 18.1 °F 23.0 °F 92% 30.07 in - West 5.8 mph - N/A   Unknown
3:48 AM 28.0 °F 21.7 °F 25.0 °F 88% 30.06 in - West 5.8 mph - N/A   Unknown
4:48 AM 26.1 °F 19.4 °F 24.1 °F 92% 30.04 in - WNW 5.8 mph - N/A   Unknown
5:48 AM 28.0 °F 22.8 °F 25.0 °F 88% 30.04 in - WNW 4.6 mph - N/A   Unknown
6:48 AM 27.0 °F - 24.1 °F 89% 30.04 in - Calm Calm - N/A   Unknown
7:48 AM 28.9 °F 22.8 °F 25.0 °F 85% 30.05 in - NW 5.8 mph - N/A   Unknown
8:48 AM 32.0 °F 24.2 °F 28.0 °F 85% 30.04 in - West 9.2 mph - N/A   Unknown
9:48 AM 39.9 °F 35.8 °F 30.0 °F 68% 30.04 in - West 5.8 mph - N/A   Unknown
10:48 AM 48.0 °F - 30.9 °F 52% 30.03 in - West 4.6 mph - N/A   Unknown
11:48 AM 50.0 °F - 26.1 °F 39% 30.03 in - NW 13.8 mph - N/A   Unknown
12:48 PM 51.1 °F - 28.0 °F 41% 30.02 in - WNW 12.7 mph - N/A   Unknown
1:48 PM 53.1 °F - 28.0 °F 38% 30.02 in - NW 16.1 mph 25.3 mph N/A   Unknown
2:48 PM 52.0 °F - 30.9 °F 45% 30.03 in - NNW 17.3 mph - N/A   Unknown
3:48 PM 50.0 °F - 32.0 °F 50% 30.05 in - NNW 24.2 mph 29.9 mph N/A   Unknown
4:48 PM 43.0 °F 34.8 °F 37.0 °F 80% 30.09 in - North 18.4 mph - N/A   Unknown
5:48 PM 39.9 °F 31.4 °F 37.0 °F 89% 30.13 in - North 16.1 mph - 0.02 in   Unknown
6:48 PM 39.0 °F 31.4 °F 36.0 °F 89% 30.16 in - North 12.7 mph - 0.01 in   Unknown
7:48 PM 37.9 °F 32.1 °F 36.0 °F 93% 30.17 in - NNW 8.1 mph - 0.01 in   Unknown
8:48 PM 37.9 °F 30.5 °F 36.0 °F 93% 30.19 in - NW 11.5 mph - 0.02 in   Unknown
9:48 PM 37.9 °F 33.5 °F 37.0 °F 97% 30.19 in - WNW 5.8 mph - N/A   Unknown
10:48 PM 36.0 °F 30.3 °F 34.0 °F 93% 30.19 in - WNW 6.9 mph - N/A   Unknown
11:48 PM 36.0 °F 31.1 °F 34.0 °F 93% 30.19 in - WNW 5.8 mph - N/A   Unknown